Regional Weather Roundup
Issued by NWS

Home | Current Version | Previous Version | Graphics & Text | Print | Product List | Glossary Off
Versions: 1 2 3 4 5 6 7 8 9 10 11 12 13 14 15 16 17 18 19 20 21 22 23 24 25 26 27 28 29 30 31 32 33 34 35 36 37 38 39 40 41 42 43 44 45 46 47 48 49 50

000
ASUS43 KDTX 300710
RWRMI
MICHIGAN HOURLY REGIONAL WEATHER ROUNDUP
NATIONAL WEATHER SERVICE DETROIT/PONTIAC MI
300 AM EDT TUE JUN 30 2015

NOTE: "FAIR" INDICATES FEW OR NO CLOUDS BELOW 12,000 FEET WITH NO
SIGNIFICANT WEATHER AND/OR OBSTRUCTION TO VISIBILITY.

MIZ047>049-052>055-059>063-066>070-074>076-081>083-300800-
SOUTHEAST LOWER MICHIGAN

CITY           SKY/WX    TMP DP  RH WIND       PRES   REMARKS
ADRIAN         CLOUDY    62  59  90 NW3       29.82S
ALMA           CLEAR     56  55  99 CALM      29.82F
ANN ARBOR      CLOUDY    63  59  87 CALM      29.81F
BAD AXE        CLEAR     56  52  86 CALM      29.84S
CARO           CLEAR     55  54  98 CALM      29.82S
DETROIT CITY   CLOUDY    64  59  83 E5        29.82S
DETROIT        LGT RAIN  63  61  93 CALM      29.82S FOG
FLINT          MOCLDY    60  56  86 CALM      29.83S
GROSSE ILE       N/A     64  61  88 E7        29.80S
HILLSDALE      CLOUDY    62  62 100 CALM      29.82F
HOWELL         CLOUDY    61  59  94 CALM      29.83R

CITY           SKY/WX    TMP DP  RH WIND       PRES   REMARKS
JACKSON        CLOUDY    60  58  92 CALM      29.82S
LAMBERTVILLE   PTCLDY    62  58  88 CALM      29.81F
LANSING        CLOUDY    62  58  86 CALM      29.82F
LAPEER         FAIR      54  52  95 CALM      29.82F
MASON          CLOUDY    59  57  93 CALM      29.82S
MONROE         CLOUDY    64  62  94 N5        29.79F
MT. CLEMENS    CLOUDY    65  60  83 SE9       29.81R
PONTIAC        CLOUDY    64  58  80 E5        29.81S
PORT HOPE        N/A     58  54  86 CALM      29.82S
PORT HURON     CLOUDY    59  57  94 CALM      29.83S
TRI CITIES     CLEAR     59  55  87 SE5       29.83S
MIDLAND        FAIR      56  55  95 CALM      29.81F
TROY           CLOUDY    66  58  75 SE6       29.84S
SAGINAW HB     CLEAR     57  55  94 SE3       29.82S
$$
MIZ043>046-050>051-056>058-064>065-071>073-077>080-300800-
SOUTHWEST LOWER MICHIGAN

CITY           SKY/WX    TMP DP  RH WIND       PRES   REMARKS
BATTLE CREEK   CLOUDY    63  58  83 S3        29.82F
BENTON HARBOR  MOCLDY    61  58  90 SE7       29.80S
BIG RAPIDS     PTCLDY    57  54  89 CALM      29.80S
COLDWATER      CLOUDY    61  59  94 CALM      29.81F
FREMONT        FAIR      59  58  96 SE3       29.79F
HOLLAND        PTCLDY    60  57  89 S6        29.81S
GRAND RAPIDS   CLEAR     58  56  93 SE3       29.81F
IONIA          FAIR      58  57  96 CALM      29.81S
KALAMAZOO      CLEAR     61  57  87 S5        29.81F
LUDINGTON      MOCLDY    58  56  92 CALM      29.79S
MARSHALL       MOCLDY    58  57  96 CALM      29.81F
MOUNT PLEASANT CLEAR     57  55  94 CALM      29.81S
MUSKEGON       PTCLDY    60  57  89 S3        29.80S
SOUTH HAVEN    CLOUDY    61  58  91 CALM      29.80S
$$
MIZ016>042-300800-
NORTHERN LOWER MICHIGAN

CITY           SKY/WX    TMP DP  RH WIND       PRES   REMARKS
ALPENA         CLEAR     57  54  89 S3        29.81F
BEAVER ISLAND  MOCLDY    60  58  92 CALM      29.78S
BELLAIRE       MOCLDY    60  57  89 CALM      29.79R
CADILLAC       MOCLDY    53  52  96 CALM      29.80F
CHARLEVOIX     PTCLDY    64  57  79 CALM      29.81S
FRANKFORT      MOCLDY    60  54  80 CALM      29.78S
GAYLORD        PTCLDY    61  57  87 CALM      29.81F
GRAYLING       CLEAR     51  50  97 CALM      29.82S
HARBOR SPRINGS MOCLDY    60  55  84 CALM      29.79S
HOUGHTON LAKE  CLEAR     54  52  93 E3        29.82F
MANISTEE       MOCLDY   N/A N/A N/A E3        29.78S
OSCODA         CLEAR     56  52  88 CALM      29.82S
PELLSTON       CLOUDY    59  54  83 NW3       29.79F
ROGERS CITY    CLEAR     61  55  79 S3        29.81S
TRAVERSE CITY  MOCLDY    62  58  86 S3        29.77S
$$
MIZ007>008-015-300800-
EASTERN UPPER MICHIGAN

CITY           SKY/WX    TMP DP  RH WIND       PRES   REMARKS
KINROSS        PTCLDY    61  54  77 S3        29.79S
MACKINAC ISLAN CLOUDY    62  56  80 CALM      29.79S
NEWBERRY       MOCLDY    58  57  97 S7        29.77S
S. S. MARIE    MOCLDY    60  54  80 E3        29.79S
MUNISING         N/A     59  56  89 N7        29.77S
$$
MIZ004>006-011>014-085-300800-
CENTRAL UPPER MICHIGAN

CITY           SKY/WX    TMP DP  RH WIND       PRES   REMARKS
MANISTIQUE     LGT RAIN  59  57  94 S6        29.77S
ESCANABA       CLOUDY    61  57  88 CALM      29.76S
MENOMINEE      CLOUDY    63  57  82 N7        29.76R
SAWYER-GWINN   FOG       57  56  95 CALM      29.78F VSB 1/2
$$
MIZ001>003-009>011-084-300800-
WESTERN UPPER MICHIGAN

CITY           SKY/WX    TMP DP  RH WIND       PRES   REMARKS
IRON MOUNTAIN  CLOUDY    61  59  93 NW6       29.78S
HOUGHTON       CLOUDY    51  49  92 N14G26    29.82S
COPPER HARBOR    N/A     47  45  93 N10       29.84R
IRONWOOD       CLOUDY    57  57 100 N13       29.84R
$$

ABBREVIATIONS USED IN REMARKS
   TC - TEMPERATURE IN CELSIUS
  WCI - WIND CHILL INDEX
   HX - HEAT INDEX
  VSB - VISIBILITY



USA.gov is the U.S. government's official web portal to all federal, state and local government web resources and services.